Location: Fontevrault
(47.1823°N, 0.0493°E)
Time: 14:12:46
(UTC+00:00)

Lacrosse 5 - Pass Details

Date: 02 November 2021
Orbit: 714 x 724 km, 57.0° (Epoch: 28 August)

Event Time Altitude Azimuth Distance (km) Brightness Sun altitude
Rises 17:52:48 0° 214° (SW) 3,125 5.8 -12.5°
Reaches altitude 10° 17:55:13 10° 210° (SSW) 2,208 4.9 -12.9°
Maximum altitude 18:00:10 53° 134° (SE) 890 2.1 -13.8°
Enters shadow 18:03:28 20° 65° (ENE) 1,623 3.1 -14.3°
